London, United Kingdom

9:42 PM GMT on March 01, 2017 (GMT +0000)
London

Weather History for 03772 - October, 2012

Change the Weather History Date:

Tuesday, October 2, 2012

  Actual Average Record
Temperature  
Mean Temperature 58 °F -  
Max Temperature 64 °F 57 °F - ()
Min Temperature 51 °F 46 °F - ()
Degree Days  
Heating Degree Days 8    
Growing Degree Days 8 (Base 50)    
Moisture  
Dew Point 51 °F    
Average Humidity 84    
Maximum Humidity 94    
Minimum Humidity 56    
Precipitation  
Precipitation 0.03 in - - ()
Sea Level Pressure  
Sea Level Pressure 29.82 in    
Wind  
Wind Speed 10 mph ()    
Max Wind Speed 21 mph    
Max Gust Speed 33 mph    
Visibility 8.1 miles    
Events Rain    
T = Trace of Precipitation, MM = Missing Value Source: Averaged Metar Reports

Daily Weather History Graph

Daily Weather History Graph

Search for Another Location

Airport or City:

Trip Planner

Search our weather history database for the weather conditions in past years. The results will help you decide how hot, cold, wet, or windy it might be!

Date:

Astronomy

Oct. 02, 2012 Rise Set
Actual Time 7:04 AM BST 6:36 PM BST
Civil Twilight 6:31 AM BST 7:09 PM BST
Nautical Twilight 5:52 AM BST 7:48 PM BST
Astronomical Twilight 5:12 AM BST 8:27 PM BST
Moon 7:16 PM BST (10/2) 9:39 AM BST (10/2)
Length of Visible Light 12h 38m
Length of Day
11h 31m
Waning Gibbous, 95% of the Moon is Illuminated
Oct 2
Waning Gibbous
Oct 8
Last Quarter
Oct 15
New
Oct 22
First Quarter
Oct 29
Full

Hourly Weather History & Observations

Time (BST) Temp. Dew Point Humidity Pressure Visibility Wind Dir Wind Speed Gust Speed Precip Events Conditions
12:20 AM 51.8 °F 50.0 °F 94% 29.89 in - SSW 6.9 mph - N/A   Clear
12:50 AM 53 °F 50 °F 85% 29.90 in 17 mi SW 9.2 mph - -  
12:50 AM 51.8 °F 50.0 °F 94% 29.89 in - SW 9.2 mph - N/A   Clear
1:20 AM 51.8 °F 50.0 °F 94% 29.89 in 6.2 mi SW 9.2 mph - N/A   Unknown
1:50 AM 51.8 °F 50.0 °F 94% 29.89 in 6.2 mi SW 10.4 mph - N/A   Unknown
2:20 AM 51.8 °F 48.2 °F 88% 29.89 in 6.2 mi SW 9.2 mph - N/A   Unknown
2:50 AM 51.8 °F 48.2 °F 88% 29.89 in - SW 9.2 mph - N/A   Clear
3:20 AM 51.8 °F 48.2 °F 88% 29.89 in - SSW 8.1 mph - N/A   Clear
3:50 AM 52 °F 49 °F 85% 29.88 in 16 mi SSW 9.2 mph - -   Scattered Clouds
3:50 AM 51.8 °F 48.2 °F 88% 29.89 in 6.2 mi SSW 6.9 mph - N/A   Unknown
4:20 AM 51.8 °F 48.2 °F 88% 29.89 in - SSW 6.9 mph - N/A   Clear
4:50 AM 51.8 °F 50.0 °F 94% 29.86 in - SSW 8.1 mph - N/A   Clear
5:20 AM 51.8 °F 48.2 °F 88% 29.86 in - SSW 9.2 mph - N/A   Clear
5:50 AM 51.8 °F 50.0 °F 94% 29.86 in - SSW 8.1 mph - N/A   Clear
6:20 AM 51.8 °F 50.0 °F 94% 29.86 in - SSW 8.1 mph - N/A   Clear
6:50 AM 53 °F 50 °F 84% 29.86 in 15 mi South 9.2 mph - -  
6:50 AM 51.8 °F 50.0 °F 94% 29.86 in - SSW 8.1 mph - N/A   Clear
7:20 AM 51.8 °F 50.0 °F 94% 29.86 in - SSW 8.1 mph - N/A   Clear
7:50 AM 51.8 °F 50.0 °F 94% 29.86 in 6.2 mi SSW 9.2 mph - N/A   Partly Cloudy
8:20 AM 53.6 °F 50.0 °F 88% 29.86 in - SSW 9.2 mph - N/A   Clear
8:50 AM 53.6 °F 51.8 °F 94% 29.86 in - SSW 8.1 mph - N/A   Clear
9:20 AM 55.4 °F 51.8 °F 88% 29.86 in - SSW 9.2 mph - N/A   Clear
9:50 AM 57 °F 51 °F 76% 29.87 in 19 mi SSW 11.5 mph - -   Scattered Clouds
9:50 AM 55.4 °F 51.8 °F 88% 29.86 in 6.2 mi SW 11.5 mph - N/A   Partly Cloudy
10:20 AM 57.2 °F 51.8 °F 82% 29.86 in 6.2 mi SW 10.4 mph - N/A   Partly Cloudy
10:50 AM 59.0 °F 51.8 °F 77% 29.86 in 6.2 mi SW 10.4 mph - N/A   Partly Cloudy
11:20 AM 60.8 °F 51.8 °F 72% 29.86 in 6.2 mi SW 16.1 mph - N/A   Scattered Clouds
11:50 AM 60.8 °F 51.8 °F 72% 29.83 in 6.2 mi SW 18.4 mph - N/A   Scattered Clouds
12:20 PM 60.8 °F 51.8 °F 72% 29.83 in 6.2 mi SW 18.4 mph 29.9 mph N/A   Scattered Clouds
12:50 PM 63 °F 51 °F 56% 29.83 in 18 mi SSW 17.3 mph - -   Scattered Clouds
12:50 PM 64.4 °F 51.8 °F 64% 29.83 in 6.2 mi SW 13.8 mph - N/A   Scattered Clouds
1:20 PM 62.6 °F 51.8 °F 68% 29.83 in 6.2 mi SW 18.4 mph 33.4 mph N/A   Scattered Clouds
1:50 PM 60.8 °F 51.8 °F 72% 29.83 in 6.2 mi SW 20.7 mph - N/A   Scattered Clouds
2:20 PM 60.8 °F 51.8 °F 72% 29.80 in 6.2 mi SW 17.3 mph - N/A   Scattered Clouds
2:50 PM 62.6 °F 51.8 °F 68% 29.80 in 6.2 mi SW 17.3 mph - N/A   Partly Cloudy
3:20 PM 62.6 °F 50.0 °F 63% 29.80 in 6.2 mi SW 19.6 mph - N/A   Partly Cloudy
3:50 PM 60 °F 52 °F 69% 29.79 in 19 mi SSW 16.1 mph - -   Mostly Cloudy
3:50 PM 59.0 °F 53.6 °F 82% 29.80 in 6.2 mi SSW 15.0 mph - N/A   Partly Cloudy
4:20 PM 60.8 °F 51.8 °F 72% 29.77 in 6.2 mi SW 16.1 mph - N/A   Partly Cloudy
4:50 PM 59.0 °F 51.8 °F 77% 29.77 in 6.2 mi SSW 13.8 mph - N/A   Partly Cloudy
5:20 PM 59.0 °F 51.8 °F 77% 29.77 in 6.2 mi SSW 13.8 mph - N/A   Partly Cloudy
5:50 PM 59.0 °F 51.8 °F 77% 29.77 in 6.2 mi SSW 13.8 mph - N/A   Partly Cloudy
6:20 PM 59.0 °F 51.8 °F 77% 29.74 in 6.2 mi SW 13.8 mph 25.3 mph N/A Rain Light Rain Showers
6:50 PM 57 °F 54 °F 84% 29.76 in 6 mi SSW 17.3 mph - - Rain Rain
6:50 PM 57.2 °F 53.6 °F 88% 29.74 in 6.2 mi SW 15.0 mph - N/A Rain Light Rain
7:20 PM 55.4 °F 53.6 °F 94% 29.74 in 6.2 mi SW 13.8 mph - N/A Rain Light Rain
7:50 PM 55.4 °F 53.6 °F 94% 29.74 in 6.2 mi SSW 11.5 mph - N/A Rain Light Rain
8:20 PM 55.4 °F 53.6 °F 94% 29.74 in 6.2 mi SSW 12.7 mph - N/A Rain Light Rain
8:50 PM 55.4 °F 53.6 °F 94% 29.74 in 6.2 mi SSW 11.5 mph - N/A Rain Light Rain
9:20 PM 55.4 °F 53.6 °F 94% 29.71 in 6.2 mi SSW 12.7 mph - N/A   Mostly Cloudy
9:50 PM 57 °F 53 °F 83% 29.72 in 19 mi SSW 16.1 mph - - Rain Rain
9:50 PM 57.2 °F 53.6 °F 88% 29.71 in 6.2 mi SW 11.5 mph - N/A   Scattered Clouds
10:20 PM 57.2 °F 53.6 °F 88% 29.71 in 6.2 mi SSW 12.7 mph - N/A   Partly Cloudy
10:50 PM 55.4 °F 53.6 °F 94% 29.71 in 6.2 mi SW 11.5 mph - N/A   Partly Cloudy
11:20 PM 57.2 °F 53.6 °F 88% 29.68 in 6.2 mi SSW 11.5 mph - N/A   Partly Cloudy
11:50 PM 57.2 °F 53.6 °F 88% 29.68 in 6.2 mi SSW 11.5 mph - N/A   Partly Cloudy